Weather in Vybiti

Russia / Novgorod Oblast     58°04′15″N   30°25′10″E
temp.,
°C
wind,
m/s
gust,
m/s
humid.,
%
clouds,
%
prec.,
mm/h
press.,
hPa
HPBL,
m
19 september, sun
sun1900:00+5ene51383100 0.0 1024575
03:00+4ene51284100 0.0 1023504
06:00+4ene51281100 0.0 1023522
09:00+5ene61373100 0.0 1023611
12:00+8ene61260100 0.0 1023971
15:00+8ene61262100 0.0 10231144
18:00+7ene61165100 0.0 10221146
21:00+5ene61275100 0.1 1023982
20 september, mon
mon2000:00+5ene61283100 0.2 1022920
03:00+6ene61272100 0.3 1022968
06:00+6ene61273100 0.0 10211005
09:00+6ene71374100 0.0 1022955
12:00+7ene71266100 0.0 10211072
15:00+9ene71260100 0.0 10211177
18:00+6ene71379100 0.3 10211158
21:00+4ene61391100 0.9 1021974
21 september, tue
tue2100:00+4ene51196100 0.1 1021872
03:00+4ene5996100 0.2 1020833
06:00+4ne5997100 0.1 1019853
09:00+4ne4997100 0.4 1018784
12:00+4ne4897100 0.1 1018795
15:00+4ne4797100 0.4 1018762
18:00+4ne4798100 1.4 1018729
21:00+4nne4798100 2.4 1018721
22 september, wed
wed2200:00+4nne3798100 0.1 1018724
03:00+5nne4898100 0.2 1018540
06:00+5nne4998100 0.1 1018561
09:00+6nne4897100 0.1 1019581
12:00+7ne4895100 0.0 1019606
15:00+7nne4894100 0.1 1019765
18:00+7ne4896100 1.7 1018917
21:00+6ene3896100 2.9 1018630
23 september, thu
thu2300:00+6e3796100 0.1 1018408
03:00+6e3697100 0.1 1017293
06:00+6ese3797100 0.0 1016310
09:00+7se269595 0.0 1016336
12:00+10sse467684 0.1 10151027
15:00+10sse467099 0.3 10131198
18:00+8sse358379 0.2 1012328
21:00+6sse289599 0.2 1011216